Regional Weather Roundup
Issued by NWS

Home | Current Version | Previous Version | Text Only | Print | Product List | Glossary On
Versions: 1 2 3 4 5 6 7 8 9 10 11 12 13 14 15 16 17 18 19 20 21 22 23 24 25 26 27 28
000
ASUS44 KJAN 271420
RWRMS

MISSISSIPPI HOURLY WEATHER ROUNDUP
NATIONAL WEATHER SERVICE JACKSON MS
900 AM CDT TUE SEP 27 2016

NOTE: "FAIR: INDICATES FEW OR NO CLOUDS BELOW 12,000 FEET WITH NO
SIGNIFICANT WEATHER AND/OR OBSTRUCTIONS TO VISIBILITY.

MSZ001>002-007>008-010>013-018>021-025>028-034>036-271500-
NORTHWEST MISSISSIPPI

CITY           SKY/WX    TMP DP  RH WIND       PRES   REMARKS
BATESVILLE     FAIR      64  55  72 CALM      30.06S
CLARKSDALE     SUNNY     68  59  73 N8        30.07S
CLEVELAND      FAIR      67  58  73 N13       30.05S
GREENWOOD      PTSUNNY   68  55  63 NE8       30.03S
GREENVILLE     MOSUNNY   69  55  60 N12       30.06R
OLIVE BRANCH   MOSUNNY  N/A N/A N/A N5        30.06S
OXFORD         FAIR      63  54  72 NE7       30.08S
TUNICA         SUNNY     64  55  72 N7        30.08S
WINONA         FAIR      66  54  65 NE10G17   30.03S
$$

MSZ003>006-009-014>017-022>024-029>033-037>039-271500-
NORTHEAST MISSISSIPPI

CITY           SKY/WX    TMP DP  RH WIND       PRES   REMARKS
COLUMBUS AFB   CLOUDY    68  58  72 N8        30.01R
CORINTH        FAIR      64  55  72 VRB3      30.04S
GOLDN TRIANGLE PTSUNNY   70  55  60 N12       30.01S
STARKVILLE     FAIR      68  59  73 N6        30.03S
TUPELO         MOSUNNY   67  52  58 N8        30.04S
$$

MSZ040-058-271500-
CENTRAL MISSISSIPPI

CITY           SKY/WX    TMP DP  RH WIND       PRES   REMARKS
JACKSON INTL   MOSUNNY   72  62  71 N9        30.01R
JACKSON HAWKNS SUNNY     70  60  70 NE7       30.02R
MADISON        FAIR     N/A N/A N/A N5        30.02R
MERIDIAN KEY   MOSUNNY   73  62  68 N9        29.99S
MERIDIAN NAS   PTSUNNY   70  59  68 N8        30.00R
VICKSBURG VKS  SUNNY     70  61  73 N7        30.02S
$$

MSZ059>079-271500-
SOUTH MISSISSIPPI

CITY           SKY/WX    TMP DP  RH WIND       PRES   REMARKS
BROOKHAVEN     FAIR     N/A N/A N/A N3        30.03R
HATTIESBURG    MOSUNNY   73  68  84 N5        29.99R
LAUREL         FAIR      70  69  97 CALM      29.99R
MCCOMB         MOSUNNY   71  63  75 N6        30.00R
NATCHEZ        MOSUNNY   68  61  77 N7        30.03R
PINE BELT      CLOUDY    73  64  73 NE6       30.00R
$$

MSZ080>082-271500-
COASTAL MISSISSIPPI

CITY           SKY/WX    TMP DP  RH WIND       PRES   REMARKS
BAY ST LOUIS   MOSUNNY   73  70  88 N5        29.97R
BILOXI         SUNNY     76  74  91 NE5       29.96R FOG
PASCAGOULA     SUNNY     77  74  90 N6        29.96R
GULFPORT       SUNNY     78  73  84 N6        29.95R
$$

LAZ007>009-015>016-023>026-271500-
NORTHEAST LOUISIANA

CITY           SKY/WX    TMP DP  RH WIND       PRES   REMARKS
BASTROP        FAIR      65  56  75 CALM      30.07R
TALLULAH/VBURG SUNNY     69  58  67 N12       30.04R
$$




USA.gov is the U.S. government's official web portal to all federal, state and local government web resources and services.